EN

Hourly Weather Paberze

Today, 21 April, Wednesday

Time Temperature Precipitation Wind Pressure Humidity
00:00 +5°C° 0 mm 2 mps 744 mmHg 88%
01:00 +5°C° 0 mm 2 mps 743 mmHg 88%
02:00 +5°C° 0 mm 2 mps 743 mmHg 90%
03:00 +5°C° 0 mm 2 mps 743 mmHg 91%
04:00 +5°C° 0 mm 2 mps 742 mmHg 93%
05:00 +4°C° 0 mm 2 mps 742 mmHg 94%
06:00 +7°C° 0 mm 1 mps 742 mmHg 90%
07:00 +8°C° 0 mm 1 mps 741 mmHg 86%
08:00 +9°C° 0 mm 1 mps 741 mmHg 82%
09:00 +9°C° 0.1 mm 2 mps 741 mmHg 74%
10:00 +12°C° 0.1 mm 2 mps 741 mmHg 67%
11:00 +13°C° 0.1 mm 2 mps 741 mmHg 60%
12:00 +13°C° 0.2 mm 3 mps 740 mmHg 56%
13:00 +13°C° 0.2 mm 4 mps 740 mmHg 52%
14:00 +14°C° 0.2 mm 4 mps 740 mmHg 48%
15:00 +14°C° 0 mm 4 mps 740 mmHg 48%
16:00 +14°C° 0 mm 4 mps 740 mmHg 48%
17:00 +14°C° 0 mm 4 mps 740 mmHg 48%
18:00 +12°C° 0 mm 4 mps 740 mmHg 54%
19:00 +10°C° 0 mm 3 mps 740 mmHg 60%
20:00 +8°C° 0 mm 3 mps 740 mmHg 67%
21:00 +7°C° 0 mm 3 mps 740 mmHg 69%
22:00 +5°C° 0 mm 3 mps 740 mmHg 72%
23:00 +5°C° 0 mm 3 mps 740 mmHg 74%

Tomorrow, 22 April, Thursday

Time Temperature Precipitation Wind Pressure Humidity
00:00 +4°C° 0 mm 3 mps 741 mmHg 76%
01:00 +4°C° 0 mm 3 mps 741 mmHg 78%
02:00 +3°C° 0 mm 3 mps 741 mmHg 79%
03:00 +3°C° 0.1 mm 3 mps 741 mmHg 82%
04:00 +5°C° 0.1 mm 2 mps 741 mmHg 85%
05:00 +5°C° 0.1 mm 2 mps 741 mmHg 88%
06:00 +4°C° 0.1 mm 3 mps 741 mmHg 88%
07:00 +3°C° 0.1 mm 3 mps 741 mmHg 88%
08:00 +3°C° 0.1 mm 3 mps 741 mmHg 89%
09:00 +4°C° 0.2 mm 4 mps 741 mmHg 85%
10:00 +4°C° 0.2 mm 4 mps 741 mmHg 82%
11:00 +4°C° 0.2 mm 4 mps 742 mmHg 79%
12:00 +6°C° 0 mm 5 mps 741 mmHg 68%
13:00 +7°C° 0 mm 5 mps 741 mmHg 57%
14:00 +8°C° 0 mm 6 mps 741 mmHg 47%
15:00 +7°C° 0.1 mm 6 mps 741 mmHg 50%
16:00 +7°C° 0.1 mm 6 mps 741 mmHg 53%
17:00 +7°C° 0.1 mm 6 mps 741 mmHg 57%
18:00 +5°C° 0 mm 6 mps 741 mmHg 67%
19:00 +3°C° 0 mm 6 mps 741 mmHg 76%
20:00 +1°C° 0 mm 5 mps 741 mmHg 86%
21:00 +1°C° 0 mm 5 mps 741 mmHg 86%
22:00 0°C° 0 mm 5 mps 741 mmHg 86%
23:00 0°C° 0 mm 5 mps 741 mmHg 85%

Day after tomorrow, 23 April, Friday

Time Temperature Precipitation Wind Pressure Humidity
00:00 0°C° 0.1 mm 5 mps 741 mmHg 89%
01:00 -2°C° 0.1 mm 6 mps 741 mmHg 92%
02:00 -2°C° 0.1 mm 6 mps 741 mmHg 96%
03:00 -2°C° 0.1 mm 6 mps 741 mmHg 95%
04:00 -2°C° 0.1 mm 6 mps 741 mmHg 94%
05:00 -2°C° 0.1 mm 6 mps 741 mmHg 93%
06:00 -2°C° 0.2 mm 6 mps 741 mmHg 92%
07:00 -2°C° 0.2 mm 6 mps 742 mmHg 92%
08:00 -1°C° 0.2 mm 6 mps 742 mmHg 91%
09:00 -1°C° 0.1 mm 6 mps 742 mmHg 86%
10:00 +1°C° 0.1 mm 6 mps 743 mmHg 80%
11:00 +2°C° 0.1 mm 6 mps 743 mmHg 74%
12:00 +2°C° 0.3 mm 6 mps 744 mmHg 71%
13:00 +3°C° 0.3 mm 6 mps 744 mmHg 67%
14:00 +3°C° 0.3 mm 6 mps 744 mmHg 64%
15:00 +3°C° 0.4 mm 5 mps 744 mmHg 66%
16:00 +3°C° 0.4 mm 5 mps 744 mmHg 69%
17:00 +2°C° 0.4 mm 5 mps 745 mmHg 71%
18:00 +1°C° 0.1 mm 4 mps 745 mmHg 75%
19:00 +1°C° 0.1 mm 3 mps 745 mmHg 79%
20:00 0°C° 0.1 mm 3 mps 745 mmHg 83%
21:00 0°C° 0 mm 3 mps 745 mmHg 84%
22:00 0°C° 0 mm 3 mps 745 mmHg 85%
23:00 -2°C° 0 mm 4 mps 745 mmHg 85%

24 April, Saturday

Time Temperature Precipitation Wind Pressure Humidity
00:00 -2°C° 0.3 mm 4 mps 744 mmHg 89%
01:00 -2°C° 0.3 mm 5 mps 744 mmHg 93%
02:00 -2°C° 0.3 mm 5 mps 744 mmHg 97%
03:00 -2°C° 0.3 mm 5 mps 744 mmHg 96%
04:00 -2°C° 0.3 mm 5 mps 744 mmHg 95%
05:00 -2°C° 0.3 mm 5 mps 744 mmHg 94%
06:00 -2°C° 0.1 mm 5 mps 744 mmHg 95%
07:00 -1°C° 0.1 mm 5 mps 744 mmHg 95%
08:00 -1°C° 0.1 mm 5 mps 745 mmHg 96%
09:00 -1°C° 0.2 mm 5 mps 745 mmHg 95%
10:00 0°C° 0.2 mm 5 mps 745 mmHg 94%
11:00 0°C° 0.2 mm 5 mps 745 mmHg 93%
12:00 +1°C° 0.2 mm 5 mps 745 mmHg 86%
13:00 +2°C° 0.2 mm 6 mps 745 mmHg 79%
14:00 +3°C° 0.2 mm 6 mps 745 mmHg 72%
15:00 +3°C° 0.2 mm 6 mps 745 mmHg 72%
16:00 +3°C° 0.2 mm 6 mps 745 mmHg 72%
17:00 +2°C° 0.2 mm 6 mps 745 mmHg 72%
18:00 +1°C° 0 mm 6 mps 745 mmHg 74%
19:00 -1°C° 0 mm 6 mps 745 mmHg 76%
20:00 -2°C° 0 mm 6 mps 745 mmHg 78%
21:00 -2°C° 0.1 mm 6 mps 745 mmHg 84%
22:00 -1°C° 0.1 mm 5 mps 745 mmHg 90%
23:00 -1°C° 0.1 mm 5 mps 744 mmHg 96%

25 April, Sunday

Time Temperature Precipitation Wind Pressure Humidity
00:00 -1°C° 0.1 mm 5 mps 744 mmHg 96%
01:00 -2°C° 0.1 mm 6 mps 744 mmHg 96%
02:00 -2°C° 0.1 mm 6 mps 744 mmHg 95%
03:00 -2°C° 0.2 mm 6 mps 744 mmHg 96%
04:00 -3°C° 0.2 mm 6 mps 744 mmHg 96%
05:00 -3°C° 0.2 mm 6 mps 744 mmHg 96%
06:00 -3°C° 0.3 mm 6 mps 744 mmHg 96%
07:00 -2°C° 0.3 mm 6 mps 744 mmHg 96%
08:00 -2°C° 0.3 mm 6 mps 744 mmHg 96%
09:00 -2°C° 0.3 mm 6 mps 744 mmHg 94%
10:00 -1°C° 0.3 mm 6 mps 744 mmHg 92%
11:00 -1°C° 0.3 mm 6 mps 744 mmHg 90%
12:00 +1°C° 0.3 mm 6 mps 744 mmHg 88%
13:00 +1°C° 0.3 mm 6 mps 744 mmHg 87%
14:00 +1°C° 0.3 mm 6 mps 744 mmHg 86%
15:00 0°C° 0.3 mm 7 mps 744 mmHg 88%
16:00 0°C° 0.3 mm 7 mps 744 mmHg 89%
17:00 0°C° 0.3 mm 7 mps 744 mmHg 91%
18:00 -1°C° 0.3 mm 7 mps 744 mmHg 93%
19:00 -2°C° 0.3 mm 6 mps 744 mmHg 95%
20:00 -3°C° 0.3 mm 6 mps 744 mmHg 97%
21:00 -3°C° 0.4 mm 6 mps 744 mmHg 97%
22:00 -3°C° 0.4 mm 6 mps 744 mmHg 97%
23:00 -3°C° 0.4 mm 6 mps 744 mmHg 97%

26 April, Monday

Time Temperature Precipitation Wind Pressure Humidity
00:00 -3°C° 0.3 mm 6 mps 744 mmHg 97%
01:00 -2°C° 0.3 mm 5 mps 744 mmHg 97%
02:00 -2°C° 0.3 mm 5 mps 743 mmHg 97%
03:00 -2°C° 0.2 mm 5 mps 744 mmHg 97%
04:00 -2°C° 0.2 mm 5 mps 744 mmHg 97%
05:00 -2°C° 0.2 mm 5 mps 744 mmHg 98%
06:00 -2°C° 0.3 mm 5 mps 744 mmHg 98%
07:00 -1°C° 0.3 mm 5 mps 744 mmHg 98%
08:00 -1°C° 0.3 mm 5 mps 744 mmHg 98%
09:00 -1°C° 0 mm 5 mps 745 mmHg 97%
10:00 0°C° 0 mm 5 mps 745 mmHg 97%
11:00 0°C° 0 mm 5 mps 746 mmHg 96%
12:00 +1°C° 0 mm 5 mps 746 mmHg 89%
13:00 +2°C° 0 mm 5 mps 746 mmHg 81%
14:00 +5°C° 0 mm 5 mps 746 mmHg 74%
15:00 +5°C° 0 mm 5 mps 746 mmHg 72%
16:00 +5°C° 0 mm 5 mps 746 mmHg 70%
17:00 +6°C° 0 mm 5 mps 746 mmHg 67%
18:00 +4°C° 0 mm 4 mps 746 mmHg 73%
19:00 +2°C° 0 mm 3 mps 746 mmHg 79%
20:00 +1°C° 0 mm 3 mps 746 mmHg 84%
21:00 +1°C° 0 mm 2 mps 746 mmHg 86%
22:00 -1°C° 0 mm 2 mps 747 mmHg 88%
23:00 -2°C° 0 mm 2 mps 747 mmHg 89%
Show more

We Need Your Consent

Meteoprog and our Service Providers may store and access personal data such as cookies, device identifiers or other similar technologies on your device and process such data to personalise content and ads, as well as provide social media features and to analyse the traffic.

  • Store and/or access information on your device

    Cookies, device identifiers or other information can be stored or accessed on your device for the purposes indicated above.

  • Personalised ads and content, ad and content measurement, audience insights, and products development

    Ads and content can be personalised based on a profile. More data can be added to better personalise ads and content. Ad and content performance can be measured. Insights about the audience who saw the ads and content can be derived. Such data can be used to develop or improve user’s experience, systems and software.

By clicking ‘I Agree’ you will allow the use of indicated cookies, device identifiers, web beacons or other similar technologies. Your settings can be changed in the browser on your device.

For certain purposes, legitimate interests may be relied on, rather than consent. You can read more about this in our Privacy and Cookie Policy.